This is the latest recevied weather packets stored in our database for station/object K9TLD. If no packets are shown the sender has not sent any weather packets the latest 10 day(s).
| Time | Temp. | Humidity | Pressure | Rain* | Wind** | Luminosity | Snow |
|---|---|---|---|---|---|---|---|
| 1778241344 | 7.78° C | 65% | 1011.9 hPa | 0 mm | - | 89 W/m² | - |
| 1778241040 | 7.78° C | 67% | 1011.9 hPa | 0 mm | - | 80 W/m² | - |
| 1778240737 | 7.22° C | 69% | 1011.9 hPa | 0 mm | - | 71 W/m² | - |
| 1778240434 | 6.67° C | 70% | 1011.9 hPa | 0 mm | - | 62 W/m² | - |
| 1778240131 | 6.67° C | 70% | 1011.9 hPa | 0 mm | - | 54 W/m² | - |
| 1778239829 | 6.11° C | 72% | 1012 hPa | 0 mm | - | 46 W/m² | - |
| 1778239525 | 5.56° C | 73% | 1011.8 hPa | 0 mm | - | 39 W/m² | - |
| 1778239222 | 5.56° C | 74% | 1012 hPa | 0 mm | - | 32 W/m² | - |
| 1778238919 | 5° C | 76% | 1011.7 hPa | 0 mm | - | 27 W/m² | - |
| 1778238616 | 4.44° C | 78% | 1011.8 hPa | 0 mm | - | 22 W/m² | - |
| 1778238314 | 3.89° C | 80% | 1011.8 hPa | 0 mm | - | 17 W/m² | - |
| 1778238009 | 3.33° C | 81% | 1011.9 hPa | 0 mm | - | 13 W/m² | - |
| 1778237705 | 3.33° C | 81% | 1011.8 hPa | 0 mm | - | 9 W/m² | - |
| 1778237403 | 3.33° C | 81% | 1011.8 hPa | 0 mm | - | 7 W/m² | - |
| 1778237100 | 3.33° C | 81% | 1011.8 hPa | 0 mm | - | 5 W/m² | - |
| 1778236796 | 3.33° C | 82% | 1011.9 hPa | 0 mm | - | 3 W/m² | - |
| 1778236493 | 2.78° C | 83% | 1011.9 hPa | 0 mm | - | 2 W/m² | - |
| 1778236190 | 2.22° C | 84% | 1011.8 hPa | 0 mm | - | 1 W/m² | - |
| 1778235888 | 2.22° C | 85% | 1011.8 hPa | 0 mm | - | 1 W/m² | - |
| 1778235585 | 2.22° C | 85% | 1011.9 hPa | 0 mm | - | 0 W/m² | - |
| 1778235283 | 2.22° C | 85% | 1011.8 hPa | 0 mm | - | 0 W/m² | - |
| 1778234980 | 2.22° C | 84% | 1011.9 hPa | 0 mm | - | 0 W/m² | - |
| 1778234679 | 2.22° C | 84% | 1011.9 hPa | 0 mm | - | 0 W/m² | - |
| 1778234374 | 2.22° C | 84% | 1012 hPa | 0 mm | - | 0 W/m² | - |
| 1778234072 | 2.22° C | 84% | 1012 hPa | 0 mm | - | 0 W/m² | - |
* Rain latest hour (hover to see other rain measurements)
** Current wind speed in m/s (hover to see current wind gust speed)